Location: Unspecified
(0.0000°N, 0.0000°E)
Time: 11:18:01
(UTC+00:00)

Vanguard 2 Rocket - Pass Details

Date: 21 November 2019
Orbit: 554 x 3326 km, 32.9° (Epoch: 13 December)

Event Time Altitude Azimuth Distance (km) Brightness Sun altitude
Rises 07:20:00 0° 312° (NW) 4,517 9.9 22.1°
Reaches altitude 10° 07:22:30 10° 315° (NW) 3,826 9.6 22.7°
Maximum altitude 07:33:19 72° 38° (NE) 2,440 9.6 25.2°
Drops below altitude 10° 07:51:38 10° 120° (ESE) 6,110 12.7 29.4°
Sets 07:56:49 0° 121° (ESE) 7,273 12.6 30.6°
